Regional Weather Roundup
Issued by NWS

Home | Current Version | Previous Version | Graphics & Text | Print | Product List | Glossary On
Versions: 1 2 3 4 5 6 7 8 9 10 11 12 13 14 15 16 17 18 19 20 21 22 23 24 25 26 27 28 29 30 31 32 33 34 35 36 37 38 39 40 41 42 43 44 45 46 47 48 49 50
129
ASUS43 KMPX 312101
RWRMN
WEATHER ROUNDUP FOR MINNESOTA
NATIONAL WEATHER SERVICE TWIN CITIES/CHANHASSEN MN
400 PM CDT WED AUG 31 2016


NOTE: "FAIR" INDICATES FEW OR NO CLOUDS BELOW 12,000 FEET WITH NO
SIGNIFICANT WEATHER AND/OR OBSTRUCTIONS TO VISIBILITY. N/A MEANS
CURRENT SKY AND/OR WEATHER CONDITIONS ARE NOT AVAILABLE.

MNZ060>063-068>070-312200-
   Twin Cities Metro

CITY           SKY/WX    TMP DP  RH WIND       PRES   REMARKS
TWIN CITIES    SUNNY     79  50  36 N8        30.17F
ST PAUL        SUNNY     77  51  40 N9        30.17F
CRYSTAL        SUNNY     79  50  36 NW8       30.16F
BLAINE         SUNNY     79  52  38 N9        30.18F
LAKEVILLE      SUNNY     75  54  46 N8        30.17F
EDEN PRAIRIE   SUNNY     79  54  41 N8        30.16F
LAKEVILLE      SUNNY     75  54  46 N8        30.17F
SOUTH ST PAUL  SUNNY     78  47  33 N8        30.17F
LAKE ELMO      FAIR      75  54  46 N9        30.19S
$$
MNZ001>005-007-008-013>017-022>024-027-028-312200-
   Northwest Minnesota

CITY           SKY/WX    TMP DP  RH WIND       PRES   REMARKS
BEMIDJI        MOSUNNY   71  55  56 N9        30.23F
HALLOCK        SUNNY     73  54  49 N8        30.22F
ROSEAU         MOSUNNY   72  55  56 N9        30.24F
WARROAD        MOSUNNY   68  55  64 E8        30.26F
THIEF RVR FALL SUNNY     72  55  55 N9        30.24F
CROOKSTON      SUNNY     73  54  49 NE6       30.23S
FOSSTON        SUNNY     75  64  69 N7        30.23F
DETROIT LAKES  SUNNY     73  52  46 N3        30.23F
MOORHEAD       SUNNY     79  52  38 N7        30.21F
PARK RAPIDS    SUNNY     76  48  37 N7        30.21F
MAHNOMEN       FAIR      73  53  49 N8        30.22F
$$
MNZ006-009>011-018-025>026-312200-
   North Central Minnesota

CITY           SKY/WX    TMP DP  RH WIND       PRES   REMARKS
BAUDETTE       MOSUNNY   70  56  61 NW12      30.24F
FLAG ISLAND    SUNNY     66  52  59 CALM      30.24F HAZE
INTL FALLS     PTSUNNY   69  53  56 N7        30.22F
WASKISH        CLOUDY    72  55  56 NE7       30.23S
BIG FORK       CLOUDY    70  55  60 NE6       30.23S
LONGVILLE      PTSUNNY   73  55  53 N7        30.22S
GRAND RAPIDS   MOSUNNY   70  54  56 N9        30.23F
ORR            MOSUNNY   68  52  56 CALM      30.20S
COOK           PTSUNNY   68  54  60 NW5       30.22S
WALKER         FAIR      71  55  56 N9        30.22F
$$
MNZ012-019>021-037-312200-
   Northeast Minnesota

CITY           SKY/WX    TMP DP  RH WIND       PRES   REMARKS
DULUTH         MOSUNNY   74  53  48 VRB5      30.19F
ELY            PTSUNNY   70  52  52 CALM      30.20F
HIBBING        CLOUDY    68  52  56 N7        30.21F
EVELETH        CLOUDY    73  53  50 N7        30.22F
DULUTH HARBOR  CLOUDY    75  55  50 CALM      30.17F
TWO HARBORS    PTSUNNY   73  57  56 CALM      30.17S
SILVER BAY     CLOUDY    72  54  53 NW3       30.17F
GRAND MARAIS     N/A     74  31  20 VRB7      30.16F
G MARAIS ARPRT CLOUDY    64  46  52 NW8       30.21S
$$
MNZ029>031-032-039>041-046>048-054>057-064-312200-
   West Central Minnesota

CITY           SKY/WX    TMP DP  RH WIND       PRES   REMARKS
FERGUS FALLS   SUNNY     77  54  44 N5        30.21F
WHEATON        SUNNY     82  55  39 CALM      30.20F
MORRIS         SUNNY     82  52  34 N3        30.19F
ALEXANDRIA     SUNNY     78  51  38 NE9       30.22F
ELBOW LAKE     FAIR      77  54  44 NE8       30.21S
WADENA         SUNNY     75  54  46 N7        30.21S
GLENWOOD       SUNNY     77  54  44 NW10      30.22S
APPLETON       SUNNY     81  54  39 NW6       30.19S
BENSON         SUNNY     81  55  41 CALM      30.20S
ORTONVILLE     SUNNY     81  54  39 CALM      30.19F
MADISON        SUNNY     81  54  39 CALM      30.20S
WILLMAR        FAIR      81  57  44 N6        30.20F
$$
MNZ033>034-036-042>043-049>051-058-059-312200-
   Central Minnesota

CITY           SKY/WX    TMP DP  RH WIND       PRES   REMARKS
ST CLOUD       SUNNY     77  55  46 NW6       30.19F
SAUK CENTRE    FAIR      76  53  44 N7        30.21S
PAYNESVILLE    SUNNY     79  51  38 N3        30.20F
AITKIN         SUNNY     77  48  36 N9        30.19S
PINE RIVER     SUNNY     73  54  49 N9        30.24S
BRAINERD       SUNNY     74  49  41 N12       30.21S
STAPLES        SUNNY     75  46  35 N8        30.21S
LONG PRAIRIE   FAIR      73  52  46 NW7       30.21F
LITTLE FALLS   SUNNY     75  50  41 N3        30.20F
LITCHFIELD     SUNNY     79  57  47 N9        30.19F
BUFFALO        SUNNY     77  51  39 N7        30.19F
MAPLE LAKE     SUNNY     78  57  48 N7        30.19F
HUTCHINSON     SUNNY     78  58  50 N6        30.19F
$$
MNZ037-044-045-052-053-312200-
   East Central Minnesota

CITY           SKY/WX    TMP DP  RH WIND       PRES   REMARKS
PRINCETON      SUNNY     79  54  41 N8        30.18F
MORA           SUNNY     73  52  46 NW7       30.20F
CAMBRIDGE      SUNNY     79  55  44 W8        30.17S
RUSH CITY      SUNNY     76  51  42 N7        30.18F
MOOSE LAKE     SUNNY     73  48  40 N6        30.17F
HINCKLEY       FAIR      75  52  43 NW7       30.18S
CLOQUET        MOSUNNY   72  48  43 N8        30.19F
MCGREGOR       MOSUNNY   73  52  46 N9        30.20F
$$
MNZ071>073-080-081-089-090-097-098-312200-
   Southwest Minnesota

CITY           SKY/WX    TMP DP  RH WIND       PRES   REMARKS
MONTEVIDEO     SUNNY     82  61  47 NE6       30.21F
GRANITE FALLS  SUNNY     81  58  46 CALM      30.21S
CANBY          SUNNY     81  57  43 NE6       30.21S
MARSHALL       SUNNY     78  59  51 N6        30.20F
REDWOOD FALLS  SUNNY     80  57  45 N8        30.19F
OLIVIA         SUNNY     77  55  47 N6        30.19S
WINDOM         SUNNY     77  55  47 N10       30.20F
JACKSON        SUNNY     77  54  44 VRB6      30.21F
TRACY          SUNNY     79  61  54 N5        30.21S
SLAYTON        SUNNY     77  59  53 NE7       30.22F
$$
MNZ065>067-074>077-082>085-091>093-312200-
   South Central Minnesota

CITY           SKY/WX    TMP DP  RH WIND       PRES   REMARKS
MANKATO        SUNNY     76  54  46 N8        30.19F
NEW ULM        SUNNY     77  55  47 NE3       30.19S
ST JAMES       SUNNY     79  57  47 NW8       30.20S
FAIRMONT       SUNNY     77  58  51 N8        30.19F
GLENCOE        SUNNY     77  60  54 N5        30.18F
FARIBAULT      SUNNY     79  54  41 N5        30.18F
OWATONNA       SUNNY     77  52  41 N8        30.18F
WASECA         SUNNY     73  55  53 NW10      30.19F
ALBERT LEA     SUNNY     77  55  47 N9        30.18S
$$
MNZ078>079-086>088-094>096-312200-
   Southeast Minnesota

CITY           SKY/WX    TMP DP  RH WIND       PRES   REMARKS
ROCHESTER      SUNNY     77  51  40 N12       30.17F
RED WING       SUNNY     79  46  31 N5        30.15F
STANTON        SUNNY     77  50  38 N7        30.16F
DODGE CENTER   SUNNY     75  52  43 N9        30.18F
WINONA         SUNNY     77  52  41 CALM      30.15F
AUSTIN         SUNNY     75  54  46 N8G16     30.17S
PRESTON        SUNNY     74  50  42 N12       30.17F
$$
ABBREVIATIONS USED IN REMARKS
   TC - TEMPERATURES IN CELSIUS
  WCI - WIND CHILL INDEX
   HX - HEAT INDEX
  VSB - VISIBILITY
$$




USA.gov is the U.S. government's official web portal to all federal, state and local government web resources and services.